QFA2541 WADD-YPDN

Flight info

Callsign QFA2541
Flight time 2h 24m
Altitude 37000
Route LEDOM W33 KPG J199 IKUMA J61 PAGMI Y91 ANUPA
Aircraft B738/M-SDE2E3FGHIRWXY/LB1

Departure

Time 2026-04-24 08:40
Airport Denpasar I Gusti Ngurah Rai International Airport (WADD)

Arrival

Time 2026-04-24 11:04
Airport Darwin International Airport / RAAF Darwin (YPDN)
Time Latitude Longitude Altitude Speed Heading
2026-04-24 08:21 -8.74563 115.16271 20 ft 0 kts 356°
2026-04-24 08:34 -8.74576 115.16271 20 ft 2 kts 356°
2026-04-24 08:34 -8.74593 115.16272 21 ft 2 kts 356°
2026-04-24 08:34 -8.74609 115.16273 20 ft 2 kts 354°
2026-04-24 08:34 -8.74625 115.16277 20 ft 2 kts 310°
2026-04-24 08:35 -8.74630 115.16286 20 ft 1 kts 268°
2026-04-24 08:35 -8.74630 115.16288 20 ft 0 kts 267°
2026-04-24 08:36 -8.74631 115.16286 20 ft 1 kts 245°
2026-04-24 08:36 -8.74654 115.16267 20 ft 10 kts 218°
2026-04-24 08:37 -8.74699 115.16173 22 ft 21 kts 266°
2026-04-24 08:37 -8.74705 115.15996 20 ft 28 kts 267°
2026-04-24 08:37 -8.74715 115.15806 19 ft 26 kts 269°
2026-04-24 08:37 -8.74721 115.15629 19 ft 24 kts 269°
2026-04-24 08:38 -8.74727 115.15463 20 ft 23 kts 267°
2026-04-24 08:38 -8.74780 115.15393 19 ft 0 kts 185°
2026-04-24 08:38 -8.74785 115.15393 19 ft 4 kts 185°
2026-04-24 08:39 -8.74855 115.15392 19 ft 14 kts 168°
2026-04-24 08:39 -8.74889 115.15477 20 ft 15 kts 88°
2026-04-24 08:39 -8.74877 115.15759 19 ft 78 kts 87°
2026-04-24 08:39 -8.74847 115.16570 20 ft 150 kts 88°
2026-04-24 08:40 -8.74809 115.17824 118 ft 200 kts 88°
2026-04-24 08:40 -8.74764 115.19165 1321 ft 182 kts 88°
2026-04-24 08:40 -8.74721 115.20492 2192 ft 192 kts 87°
2026-04-24 08:40 -8.74662 115.21924 2535 ft 216 kts 86°
2026-04-24 08:41 -8.74591 115.23500 2769 ft 237 kts 86°
2026-04-24 08:41 -8.74516 115.25189 3268 ft 243 kts 86°
2026-04-24 08:41 -8.74442 115.26903 3920 ft 245 kts 86°
2026-04-24 08:41 -8.74364 115.28698 4328 ft 263 kts 86°
2026-04-24 08:42 -8.74284 115.30571 5041 ft 269 kts 86°
2026-04-24 08:42 -8.74205 115.32464 5839 ft 271 kts 86°
2026-04-24 08:42 -8.74126 115.34378 6591 ft 274 kts 86°
2026-04-24 08:42 -8.74045 115.36313 7310 ft 277 kts 86°
2026-04-24 08:43 -8.73964 115.38270 7770 ft 279 kts 86°
2026-04-24 08:43 -8.73882 115.40246 7984 ft 283 kts 86°
2026-04-24 08:43 -8.73800 115.42237 7987 ft 283 kts 86°
2026-04-24 08:43 -8.73718 115.44226 7999 ft 282 kts 86°
2026-04-24 08:44 -8.73635 115.46208 8018 ft 282 kts 86°
2026-04-24 08:44 -8.73553 115.48189 8002 ft 283 kts 86°
2026-04-24 08:44 -8.73515 115.50152 7996 ft 284 kts 95°
2026-04-24 08:44 -8.74124 115.52045 8000 ft 286 kts 118°
2026-04-24 08:45 -8.75199 115.53736 8003 ft 286 kts 122°
2026-04-24 08:45 -8.76328 115.55387 8008 ft 286 kts 123°
2026-04-24 08:45 -8.77466 115.57037 8017 ft 286 kts 123°
2026-04-24 08:45 -8.78605 115.58695 8004 ft 288 kts 123°
2026-04-24 08:46 -8.79741 115.60363 8016 ft 289 kts 123°
2026-04-24 08:46 -8.80880 115.62041 8003 ft 289 kts 123°
2026-04-24 08:46 -8.82014 115.63717 8002 ft 289 kts 123°
2026-04-24 08:46 -8.83147 115.65397 7997 ft 288 kts 122°
2026-04-24 08:47 -8.84273 115.67068 7994 ft 287 kts 122°
2026-04-24 08:47 -8.85396 115.68736 7996 ft 286 kts 122°
2026-04-24 08:47 -8.86514 115.70398 7999 ft 285 kts 122°
2026-04-24 08:47 -8.87613 115.72034 8008 ft 285 kts 122°
2026-04-24 08:48 -8.88727 115.73693 8010 ft 285 kts 123°
2026-04-24 08:48 -8.89843 115.75355 8010 ft 285 kts 122°
2026-04-24 08:48 -8.90958 115.77015 8010 ft 286 kts 123°
2026-04-24 08:48 -8.92075 115.78679 8005 ft 286 kts 122°
2026-04-24 08:49 -8.93194 115.80343 8007 ft 286 kts 122°
2026-04-24 08:49 -8.94299 115.82012 8008 ft 286 kts 119°
2026-04-24 08:49 -8.94993 115.83887 8134 ft 287 kts 102°
2026-04-24 08:49 -8.95454 115.85863 8815 ft 289 kts 102°
2026-04-24 08:50 -8.95920 115.87838 9652 ft 289 kts 102°
2026-04-24 08:50 -8.96397 115.89825 10289 ft 294 kts 103°
2026-04-24 08:50 -8.96906 115.91908 10482 ft 316 kts 103°
2026-04-24 08:50 -8.97448 115.94105 10667 ft 336 kts 103°
2026-04-24 08:51 -8.98025 115.96433 11061 ft 346 kts 103°
2026-04-24 08:51 -8.98618 115.98816 11633 ft 350 kts 103°
2026-04-24 08:51 -8.99217 116.01211 12250 ft 352 kts 103°
2026-04-24 08:51 -8.99820 116.03623 12850 ft 356 kts 103°
2026-04-24 08:52 -9.00429 116.06060 13445 ft 359 kts 103°
2026-04-24 08:52 -9.01045 116.08524 13964 ft 363 kts 103°
2026-04-24 08:52 -9.01665 116.11009 14471 ft 366 kts 103°
2026-04-24 08:52 -9.02289 116.13510 15002 ft 368 kts 103°
2026-04-24 08:53 -9.02918 116.16033 15520 ft 371 kts 103°
2026-04-24 08:53 -9.03552 116.18578 16032 ft 374 kts 103°
2026-04-24 08:53 -9.04193 116.21148 16537 ft 377 kts 103°
2026-04-24 08:53 -9.04835 116.23729 17025 ft 380 kts 103°
2026-04-24 08:54 -9.05484 116.26332 17523 ft 383 kts 103°
2026-04-24 08:54 -9.06128 116.28923 18017 ft 385 kts 103°
2026-04-24 08:54 -9.06786 116.31566 18436 ft 388 kts 103°
2026-04-24 08:54 -9.07446 116.34221 18841 ft 391 kts 103°
2026-04-24 08:55 -9.08112 116.36896 19257 ft 393 kts 103°
2026-04-24 08:55 -9.08782 116.39592 19661 ft 396 kts 103°
2026-04-24 08:55 -9.09455 116.42303 20054 ft 398 kts 104°
2026-04-24 08:55 -9.10132 116.45029 20436 ft 401 kts 103°
2026-04-24 08:56 -9.10815 116.47779 20805 ft 405 kts 104°
2026-04-24 08:56 -9.11503 116.50551 21162 ft 408 kts 104°
2026-04-24 08:56 -9.12196 116.53344 21530 ft 410 kts 104°
2026-04-24 08:56 -9.12834 116.56166 21879 ft 413 kts 97°
2026-04-24 08:57 -9.12880 116.59043 22214 ft 415 kts 87°
2026-04-24 08:57 -9.12725 116.61972 22572 ft 418 kts 86°
2026-04-24 08:57 -9.12549 116.64927 22900 ft 421 kts 86°
2026-04-24 08:57 -9.12379 116.67897 23216 ft 424 kts 86°
2026-04-24 08:58 -9.12222 116.70884 23523 ft 427 kts 87°
2026-04-24 08:58 -9.12077 116.73889 23820 ft 428 kts 87°
2026-04-24 08:58 -9.11939 116.76904 24135 ft 429 kts 87°
2026-04-24 08:58 -9.11804 116.79920 24438 ft 430 kts 87°
2026-04-24 08:59 -9.11670 116.82956 24735 ft 432 kts 87°
2026-04-24 08:59 -9.11536 116.85999 25021 ft 433 kts 87°
2026-04-24 08:59 -9.11401 116.89055 25308 ft 435 kts 87°
2026-04-24 08:59 -9.11264 116.92116 25598 ft 436 kts 87°
2026-04-24 09:00 -9.11127 116.95188 25874 ft 438 kts 87°
2026-04-24 09:00 -9.10989 116.98269 26144 ft 440 kts 87°
2026-04-24 09:00 -9.10852 117.01324 26408 ft 441 kts 87°
2026-04-24 09:00 -9.10712 117.04434 26676 ft 443 kts 87°
2026-04-24 09:01 -9.10676 117.07551 26936 ft 445 kts 95°
2026-04-24 09:01 -9.11130 117.10649 27198 ft 446 kts 100°
2026-04-24 09:01 -9.11736 117.13731 27463 ft 447 kts 101°
2026-04-24 09:01 -9.12381 117.16815 27711 ft 449 kts 101°
2026-04-24 09:02 -9.13023 117.19913 27956 ft 451 kts 101°
2026-04-24 09:02 -9.13644 117.23028 28178 ft 453 kts 100°
2026-04-24 09:02 -9.14209 117.26173 28314 ft 456 kts 98°
2026-04-24 09:03 -9.14972 117.32615 28534 ft 464 kts 93°
2026-04-24 09:03 -9.15103 117.35883 28739 ft 465 kts 90°
2026-04-24 09:03 -9.15025 117.39149 28994 ft 465 kts 86°
2026-04-24 09:03 -9.14712 117.42400 29246 ft 464 kts 81°
2026-04-24 09:04 -9.14145 117.45620 29441 ft 465 kts 77°
2026-04-24 09:04 -9.13315 117.48795 29582 ft 468 kts 72°
2026-04-24 09:04 -9.12232 117.51859 29672 ft 471 kts 67°
2026-04-24 09:04 -9.10856 117.54885 29788 ft 473 kts 63°
2026-04-24 09:05 -9.09731 117.57955 30416 ft 461 kts 80°
2026-04-24 09:05 -9.09689 117.61159 30885 ft 457 kts 99°
2026-04-24 09:05 -9.10739 117.64187 31067 ft 460 kts 120°
2026-04-24 09:05 -9.12742 117.66723 31201 ft 464 kts 134°
2026-04-24 09:06 -9.14932 117.69134 31369 ft 465 kts 128°
2026-04-24 09:06 -9.16912 117.71681 31506 ft 467 kts 126°
2026-04-24 09:06 -9.18824 117.74341 31715 ft 467 kts 124°
2026-04-24 09:06 -9.20675 117.77037 31987 ft 465 kts 123°
2026-04-24 09:07 -9.22397 117.79807 32258 ft 463 kts 117°
2026-04-24 09:07 -9.23809 117.82724 32500 ft 462 kts 111°
2026-04-24 09:07 -9.25704 117.88907 32979 ft 459 kts 101°
2026-04-24 09:08 -9.26349 117.92071 33234 ft 458 kts 99°
2026-04-24 09:08 -9.26904 117.95241 33494 ft 457 kts 98°
2026-04-24 09:08 -9.27423 117.98416 33760 ft 456 kts 98°
2026-04-24 09:08 -9.27938 118.01587 33981 ft 456 kts 98°
2026-04-24 09:09 -9.28458 118.04751 34197 ft 455 kts 98°
2026-04-24 09:09 -9.28988 118.07912 34416 ft 455 kts 98°
2026-04-24 09:09 -9.29526 118.11064 34605 ft 455 kts 98°
2026-04-24 09:09 -9.30071 118.14222 34805 ft 455 kts 98°
2026-04-24 09:10 -9.30618 118.17371 35002 ft 454 kts 98°
2026-04-24 09:10 -9.31168 118.20526 35197 ft 454 kts 98°
2026-04-24 09:10 -9.31716 118.23672 35409 ft 453 kts 98°
2026-04-24 09:10 -9.32262 118.26810 35596 ft 453 kts 98°
2026-04-24 09:11 -9.32808 118.29950 35782 ft 453 kts 98°
2026-04-24 09:11 -9.33353 118.33085 35978 ft 452 kts 98°
2026-04-24 09:11 -9.33897 118.36220 36150 ft 452 kts 98°
2026-04-24 09:11 -9.34441 118.39363 36336 ft 452 kts 98°
2026-04-24 09:12 -9.34984 118.42493 36541 ft 450 kts 98°
2026-04-24 09:12 -9.35516 118.45570 36720 ft 450 kts 98°
2026-04-24 09:12 -9.36600 118.51837 36823 ft 453 kts 98°
2026-04-24 09:13 -9.37685 118.58114 36830 ft 451 kts 98°
2026-04-24 09:13 -9.38765 118.64365 36832 ft 449 kts 98°
2026-04-24 09:14 -9.39839 118.70590 36833 ft 448 kts 98°
2026-04-24 09:14 -9.40907 118.76790 36833 ft 447 kts 98°
2026-04-24 09:15 -9.41967 118.82951 36837 ft 446 kts 98°
2026-04-24 09:15 -9.43032 118.89148 36836 ft 446 kts 98°
2026-04-24 09:16 -9.44098 118.95354 36843 ft 447 kts 98°
2026-04-24 09:16 -9.45164 119.01573 36843 ft 449 kts 98°
2026-04-24 09:17 -9.46234 119.07814 36846 ft 450 kts 98°
2026-04-24 09:17 -9.47305 119.14070 36846 ft 452 kts 98°
2026-04-24 09:18 -9.48378 119.20348 36846 ft 453 kts 98°
2026-04-24 09:18 -9.49448 119.26614 36850 ft 454 kts 98°
2026-04-24 09:19 -9.50526 119.32935 36849 ft 455 kts 98°
2026-04-24 09:19 -9.51604 119.39256 36852 ft 455 kts 98°
2026-04-24 09:20 -9.52680 119.45580 36855 ft 455 kts 98°
2026-04-24 09:20 -9.53754 119.51895 36856 ft 454 kts 98°
2026-04-24 09:21 -9.54825 119.58197 36860 ft 453 kts 98°
2026-04-24 09:21 -9.55886 119.64450 36860 ft 452 kts 98°
2026-04-24 09:22 -9.56951 119.70738 36860 ft 452 kts 98°
2026-04-24 09:22 -9.58012 119.77008 36862 ft 451 kts 98°
2026-04-24 09:23 -9.58892 119.82211 36867 ft 450 kts 98°
2026-04-24 09:23 -9.60126 119.89521 36865 ft 450 kts 98°
2026-04-24 09:24 -9.61004 119.94719 36865 ft 449 kts 98°
2026-04-24 09:24 -9.62056 120.00962 36868 ft 449 kts 98°
2026-04-24 09:25 -9.63101 120.07174 36864 ft 449 kts 98°
2026-04-24 09:25 -9.64151 120.13415 36868 ft 449 kts 98°
2026-04-24 09:26 -9.65199 120.19660 36866 ft 450 kts 98°
2026-04-24 09:26 -9.66248 120.25910 36869 ft 450 kts 98°
2026-04-24 09:27 -9.67289 120.32165 36867 ft 450 kts 97°
2026-04-24 09:27 -9.68250 120.38436 36865 ft 450 kts 97°
2026-04-24 09:28 -9.69184 120.44711 36867 ft 450 kts 97°
2026-04-24 09:28 -9.70117 120.50938 36859 ft 450 kts 97°
2026-04-24 09:29 -9.71063 120.57213 36864 ft 450 kts 97°
2026-04-24 09:29 -9.72010 120.63488 36863 ft 450 kts 97°
2026-04-24 09:30 -9.73116 120.70823 36859 ft 450 kts 97°
2026-04-24 09:30 -9.73901 120.76029 36861 ft 450 kts 97°
2026-04-24 09:31 -9.74845 120.82303 36861 ft 450 kts 97°
2026-04-24 09:31 -9.75786 120.88573 36855 ft 450 kts 97°
2026-04-24 09:32 -9.76728 120.94849 36856 ft 450 kts 97°
2026-04-24 09:32 -9.77669 121.01132 36859 ft 450 kts 97°
2026-04-24 09:33 -9.78602 121.07364 36857 ft 450 kts 97°
2026-04-24 09:33 -9.79540 121.13642 36857 ft 450 kts 97°
2026-04-24 09:34 -9.80477 121.19919 36861 ft 450 kts 97°
2026-04-24 09:34 -9.81413 121.26193 36860 ft 450 kts 97°
2026-04-24 09:35 -9.82347 121.32469 36859 ft 450 kts 97°
2026-04-24 09:35 -9.83282 121.38757 36863 ft 450 kts 97°
2026-04-24 09:36 -9.84214 121.45035 36863 ft 450 kts 97°
2026-04-24 09:36 -9.85140 121.51275 36862 ft 450 kts 97°
2026-04-24 09:37 -9.86070 121.57556 36866 ft 450 kts 97°
2026-04-24 09:37 -9.86999 121.63834 36864 ft 450 kts 97°
2026-04-24 09:38 -9.87926 121.70112 36864 ft 450 kts 97°
2026-04-24 09:38 -9.88852 121.76390 36866 ft 450 kts 97°
2026-04-24 09:39 -9.89776 121.82662 36866 ft 449 kts 97°
2026-04-24 09:39 -9.90699 121.88928 36867 ft 449 kts 97°
2026-04-24 09:40 -9.91613 121.95154 36867 ft 449 kts 97°
2026-04-24 09:40 -9.92532 122.01414 36872 ft 448 kts 97°
2026-04-24 09:41 -9.93455 122.07708 36871 ft 448 kts 97°
2026-04-24 09:41 -9.94364 122.13918 36872 ft 448 kts 97°
2026-04-24 09:42 -9.95277 122.20166 36871 ft 447 kts 97°
2026-04-24 09:42 -9.96188 122.26405 36870 ft 447 kts 97°
2026-04-24 09:43 -9.97098 122.32648 36874 ft 447 kts 97°
2026-04-24 09:43 -9.98006 122.38886 36875 ft 447 kts 96°
2026-04-24 09:44 -9.98913 122.45121 36874 ft 446 kts 96°
2026-04-24 09:44 -9.99818 122.51353 36874 ft 446 kts 96°
2026-04-24 09:45 -10.00721 122.57583 36873 ft 446 kts 96°
2026-04-24 09:45 -10.01622 122.63808 36873 ft 446 kts 96°
2026-04-24 09:46 -10.02523 122.70033 36877 ft 446 kts 96°
2026-04-24 09:46 -10.03415 122.76212 36878 ft 445 kts 96°
2026-04-24 09:47 -10.04312 122.82429 36875 ft 445 kts 96°
2026-04-24 09:47 -10.05207 122.88643 36877 ft 445 kts 96°
2026-04-24 09:48 -10.06102 122.94868 36879 ft 445 kts 96°
2026-04-24 09:48 -10.06995 123.01079 36875 ft 445 kts 96°
2026-04-24 09:49 -10.07887 123.07296 36873 ft 445 kts 96°
2026-04-24 09:49 -10.08776 123.13505 36869 ft 445 kts 96°
2026-04-24 09:50 -10.09665 123.19716 36871 ft 444 kts 96°
2026-04-24 09:50 -10.10552 123.25926 36870 ft 444 kts 96°
2026-04-24 09:51 -10.11432 123.32093 36872 ft 444 kts 96°
2026-04-24 09:51 -10.12316 123.38301 36877 ft 444 kts 96°
2026-04-24 09:52 -10.13198 123.44501 36877 ft 444 kts 96°
2026-04-24 09:52 -10.14080 123.50704 36882 ft 444 kts 96°
2026-04-24 09:53 -10.14959 123.56900 36886 ft 443 kts 95°
2026-04-24 09:53 -10.15838 123.63102 36888 ft 443 kts 95°
2026-04-24 09:54 -10.16709 123.69296 36883 ft 443 kts 94°
2026-04-24 09:54 -10.17307 123.75465 36887 ft 441 kts 92°
2026-04-24 09:55 -10.17766 123.81690 36887 ft 441 kts 91°
2026-04-24 09:55 -10.18232 123.87898 36888 ft 441 kts 92°
2026-04-24 09:56 -10.18722 123.94099 36884 ft 441 kts 92°
2026-04-24 09:56 -10.19222 124.00302 36892 ft 440 kts 92°
2026-04-24 09:57 -10.19722 124.06496 36897 ft 440 kts 92°
2026-04-24 09:57 -10.20217 124.12647 36888 ft 440 kts 92°
2026-04-24 09:58 -10.20713 124.18828 36898 ft 439 kts 92°
2026-04-24 09:58 -10.21207 124.24999 36898 ft 438 kts 92°
2026-04-24 09:59 -10.21700 124.31171 36901 ft 438 kts 92°
2026-04-24 09:59 -10.22190 124.37331 36900 ft 437 kts 92°
2026-04-24 10:00 -10.22679 124.43485 36903 ft 437 kts 92°
2026-04-24 10:00 -10.23163 124.49597 36904 ft 436 kts 92°
2026-04-24 10:01 -10.23648 124.55735 36900 ft 436 kts 92°
2026-04-24 10:01 -10.24132 124.61877 36908 ft 436 kts 92°
2026-04-24 10:02 -10.24614 124.68008 36912 ft 435 kts 92°
2026-04-24 10:02 -10.25095 124.74134 36912 ft 435 kts 92°
2026-04-24 10:03 -10.25575 124.80263 36915 ft 435 kts 92°
2026-04-24 10:03 -10.26051 124.86357 36914 ft 435 kts 92°
2026-04-24 10:04 -10.26528 124.92486 36910 ft 435 kts 92°
2026-04-24 10:04 -10.27005 124.98616 36913 ft 435 kts 92°
2026-04-24 10:05 -10.27481 125.04757 36912 ft 436 kts 92°
2026-04-24 10:05 -10.27956 125.10896 36914 ft 436 kts 92°
2026-04-24 10:06 -10.28664 125.20087 36917 ft 437 kts 92°
2026-04-24 10:07 -10.29138 125.26255 36917 ft 438 kts 92°
2026-04-24 10:07 -10.29611 125.32422 36918 ft 439 kts 92°
2026-04-24 10:08 -10.30084 125.38602 36920 ft 439 kts 92°
2026-04-24 10:08 -10.30553 125.44756 36916 ft 440 kts 92°
2026-04-24 10:09 -10.31025 125.50957 36920 ft 440 kts 92°
2026-04-24 10:09 -10.31496 125.57162 36921 ft 441 kts 92°
2026-04-24 10:10 -10.31968 125.63374 36920 ft 441 kts 92°
2026-04-24 10:10 -10.32439 125.69596 36923 ft 441 kts 92°
2026-04-24 10:11 -10.32829 125.74758 36918 ft 441 kts 92°
2026-04-24 10:11 -10.33298 125.80975 36925 ft 441 kts 92°
2026-04-24 10:12 -10.33766 125.87196 36921 ft 441 kts 92°
2026-04-24 10:12 -10.34229 125.93369 36921 ft 441 kts 92°
2026-04-24 10:13 -10.34696 125.99612 36926 ft 441 kts 92°
2026-04-24 10:13 -10.35155 126.05773 36925 ft 441 kts 92°
2026-04-24 10:14 -10.35617 126.11982 36925 ft 440 kts 92°
2026-04-24 10:14 -10.36078 126.18184 36929 ft 440 kts 92°
2026-04-24 10:15 -10.36537 126.24393 36926 ft 440 kts 92°
2026-04-24 10:15 -10.36995 126.30594 36925 ft 440 kts 92°
2026-04-24 10:16 -10.37451 126.36795 36929 ft 440 kts 92°
2026-04-24 10:16 -10.37908 126.43003 36930 ft 440 kts 92°
2026-04-24 10:17 -10.38361 126.49199 36929 ft 440 kts 92°
2026-04-24 10:17 -10.38814 126.55395 36929 ft 440 kts 92°
2026-04-24 10:18 -10.39266 126.61594 36929 ft 440 kts 92°
2026-04-24 10:18 -10.39713 126.67760 36929 ft 440 kts 92°
2026-04-24 10:19 -10.40164 126.73968 36931 ft 440 kts 92°
2026-04-24 10:19 -10.40612 126.80175 36929 ft 441 kts 92°
2026-04-24 10:20 -10.41060 126.86393 36930 ft 441 kts 92°
2026-04-24 10:20 -10.41507 126.92605 36933 ft 441 kts 92°
2026-04-24 10:21 -10.41953 126.98825 36931 ft 441 kts 92°
2026-04-24 10:21 -10.42396 127.05019 36933 ft 442 kts 92°
2026-04-24 10:22 -10.42931 127.11247 36922 ft 444 kts 98°
2026-04-24 10:22 -10.44871 127.17211 36921 ft 449 kts 115°
2026-04-24 10:23 -10.47873 127.22771 36932 ft 450 kts 117°
2026-04-24 10:23 -10.50935 127.28320 36930 ft 450 kts 116°
2026-04-24 10:24 -10.53965 127.33886 36929 ft 450 kts 116°
2026-04-24 10:24 -10.56968 127.39463 36932 ft 450 kts 116°
2026-04-24 10:25 -10.59967 127.45050 36930 ft 450 kts 116°
2026-04-24 10:25 -10.62969 127.50646 36937 ft 450 kts 116°
2026-04-24 10:26 -10.65946 127.56197 36936 ft 450 kts 116°
2026-04-24 10:26 -10.68946 127.61793 36932 ft 451 kts 116°
2026-04-24 10:27 -10.71947 127.67394 36931 ft 451 kts 116°
2026-04-24 10:27 -10.74947 127.72998 36936 ft 451 kts 116°
2026-04-24 10:28 -10.77953 127.78613 36934 ft 451 kts 116°
2026-04-24 10:28 -10.80939 127.84194 36938 ft 452 kts 116°
2026-04-24 10:29 -10.83942 127.89811 36936 ft 452 kts 116°
2026-04-24 10:29 -10.86949 127.95438 36936 ft 453 kts 116°
2026-04-24 10:30 -10.89959 128.01074 36938 ft 453 kts 116°
2026-04-24 10:30 -10.92972 128.06718 36936 ft 454 kts 116°
2026-04-24 10:31 -10.95985 128.12366 36937 ft 454 kts 116°
2026-04-24 10:31 -10.99003 128.18026 36937 ft 455 kts 116°
2026-04-24 10:32 -11.02019 128.23687 36940 ft 455 kts 116°
2026-04-24 10:32 -11.05040 128.29357 36939 ft 455 kts 116°
2026-04-24 10:33 -11.08060 128.35031 36941 ft 455 kts 116°
2026-04-24 10:33 -11.11059 128.40668 36941 ft 455 kts 116°
2026-04-24 10:34 -11.14074 128.46339 36941 ft 455 kts 116°
2026-04-24 10:34 -11.17083 128.52001 36941 ft 454 kts 116°
2026-04-24 10:35 -11.20076 128.57637 36927 ft 448 kts 116°
2026-04-24 10:35 -11.23016 128.63175 36935 ft 442 kts 116°
2026-04-24 10:36 -11.25159 128.68960 36941 ft 433 kts 100°
2026-04-24 10:36 -11.26408 128.74818 36936 ft 415 kts 99°
2026-04-24 10:37 -11.27597 128.80523 36946 ft 410 kts 99°
2026-04-24 10:37 -11.28810 128.86203 36948 ft 410 kts 100°
2026-04-24 10:38 -11.30043 128.91885 36951 ft 411 kts 100°
2026-04-24 10:38 -11.31279 128.97561 36956 ft 413 kts 100°
2026-04-24 10:39 -11.32527 129.03296 36958 ft 415 kts 100°
2026-04-24 10:39 -11.33781 129.09060 36951 ft 418 kts 100°
2026-04-24 10:40 -11.35041 129.14860 36951 ft 420 kts 100°
2026-04-24 10:40 -11.36307 129.20692 36941 ft 422 kts 100°
2026-04-24 10:40 -11.36940 129.23609 36519 ft 419 kts 100°
2026-04-24 10:41 -11.37563 129.26482 35641 ft 422 kts 100°
2026-04-24 10:41 -11.38202 129.29436 34423 ft 434 kts 101°
2026-04-24 10:41 -11.38861 129.32485 33247 ft 444 kts 101°
2026-04-24 10:41 -11.39524 129.35551 32474 ft 441 kts 101°
2026-04-24 10:42 -11.40181 129.38587 31847 ft 434 kts 102°
2026-04-24 10:42 -11.40828 129.41572 31228 ft 428 kts 102°
2026-04-24 10:42 -11.41464 129.44511 30708 ft 420 kts 102°
2026-04-24 10:42 -11.42085 129.47387 30196 ft 413 kts 102°
2026-04-24 10:43 -11.42700 129.50236 29457 ft 410 kts 102°
2026-04-24 10:43 -11.43304 129.53035 29142 ft 396 kts 102°
2026-04-24 10:43 -11.43887 129.55740 28998 ft 387 kts 102°
2026-04-24 10:44 -11.45049 129.61133 28859 ft 395 kts 102°
2026-04-24 10:44 -11.46234 129.66639 28854 ft 398 kts 102°
2026-04-24 10:45 -11.47423 129.72168 28847 ft 399 kts 102°
2026-04-24 10:45 -11.48610 129.77690 28775 ft 393 kts 102°
2026-04-24 10:45 -11.49190 129.80390 28011 ft 391 kts 102°
2026-04-24 10:46 -11.49780 129.83138 26773 ft 402 kts 102°
2026-04-24 10:46 -11.50388 129.85973 25445 ft 415 kts 103°
2026-04-24 10:46 -11.51110 129.88859 24167 ft 424 kts 111°
2026-04-24 10:46 -11.52503 129.91482 22828 ft 430 kts 127°
2026-04-24 10:47 -11.54600 129.93665 21468 ft 434 kts 139°
2026-04-24 10:47 -11.56907 129.95649 20254 ft 433 kts 139°
2026-04-24 10:47 -11.59215 129.97599 19253 ft 428 kts 139°
2026-04-24 10:47 -11.61486 129.99522 18356 ft 420 kts 139°
2026-04-24 10:48 -11.63709 130.01422 17334 ft 413 kts 139°
2026-04-24 10:48 -11.65887 130.03299 16338 ft 407 kts 139°
2026-04-24 10:48 -11.68039 130.05166 15341 ft 403 kts 139°
2026-04-24 10:48 -11.70157 130.07009 14474 ft 398 kts 139°
2026-04-24 10:49 -11.72224 130.08810 14296 ft 383 kts 139°
2026-04-24 10:49 -11.74221 130.10550 14063 ft 372 kts 139°
2026-04-24 10:49 -11.76164 130.12244 13830 ft 362 kts 139°
2026-04-24 10:49 -11.78056 130.13893 13578 ft 353 kts 139°
2026-04-24 10:50 -11.79901 130.15502 13314 ft 345 kts 139°
2026-04-24 10:50 -11.81706 130.17076 13057 ft 337 kts 139°
2026-04-24 10:50 -11.83468 130.18614 12804 ft 330 kts 139°
2026-04-24 10:50 -11.85179 130.20106 12555 ft 324 kts 139°
2026-04-24 10:51 -11.86878 130.21588 12299 ft 318 kts 139°
2026-04-24 10:51 -11.88544 130.23042 12058 ft 312 kts 139°
2026-04-24 10:51 -11.90186 130.24474 11803 ft 307 kts 139°
2026-04-24 10:51 -11.91798 130.25881 11568 ft 302 kts 138°
2026-04-24 10:52 -11.93382 130.27265 11326 ft 298 kts 139°
2026-04-24 10:52 -11.94947 130.28632 11088 ft 294 kts 139°
2026-04-24 10:52 -11.96488 130.29979 10874 ft 289 kts 139°
2026-04-24 10:52 -11.98005 130.31305 10635 ft 286 kts 139°
2026-04-24 10:53 -11.99511 130.32622 10355 ft 284 kts 138°
2026-04-24 10:53 -12.01010 130.33933 10105 ft 281 kts 138°
2026-04-24 10:53 -12.02476 130.35216 9950 ft 275 kts 138°
2026-04-24 10:53 -12.03929 130.36487 9644 ft 275 kts 138°
2026-04-24 10:54 -12.05359 130.37739 9361 ft 273 kts 138°
2026-04-24 10:54 -12.06816 130.39014 9072 ft 272 kts 138°
2026-04-24 10:54 -12.08229 130.40250 8788 ft 270 kts 138°
2026-04-24 10:54 -12.09659 130.41502 8501 ft 269 kts 138°
2026-04-24 10:55 -12.11076 130.42742 8232 ft 268 kts 137°
2026-04-24 10:55 -12.12493 130.43982 7955 ft 267 kts 137°
2026-04-24 10:55 -12.13900 130.45215 7693 ft 265 kts 137°
2026-04-24 10:55 -12.14823 130.46023 7506 ft 263 kts 137°
2026-04-24 10:56 -12.16208 130.47237 7240 ft 262 kts 137°
2026-04-24 10:56 -12.18035 130.48837 6891 ft 260 kts 137°
2026-04-24 10:56 -12.19405 130.50038 6640 ft 259 kts 137°
2026-04-24 10:56 -12.20767 130.51232 6366 ft 258 kts 137°
2026-04-24 10:57 -12.21686 130.52037 6171 ft 257 kts 137°
2026-04-24 10:57 -12.23382 130.53697 5850 ft 252 kts 127°
2026-04-24 10:57 -12.24085 130.54637 5692 ft 250 kts 124°
2026-04-24 10:57 -12.25103 130.56101 5418 ft 248 kts 123°
2026-04-24 10:58 -12.26083 130.57525 5161 ft 247 kts 124°
2026-04-24 10:58 -12.27073 130.58953 4899 ft 246 kts 124°
2026-04-24 10:58 -12.28068 130.60375 4645 ft 245 kts 124°
2026-04-24 10:58 -12.29062 130.61787 4376 ft 244 kts 124°
2026-04-24 10:59 -12.30053 130.63188 4184 ft 240 kts 124°
2026-04-24 10:59 -12.31017 130.64548 4065 ft 233 kts 125°
2026-04-24 10:59 -12.31959 130.65872 3955 ft 226 kts 125°
2026-04-24 10:59 -12.32871 130.67154 3849 ft 219 kts 125°
2026-04-24 11:00 -12.33741 130.68377 3757 ft 211 kts 124°
2026-04-24 11:00 -12.34603 130.69587 3580 ft 212 kts 125°
2026-04-24 11:00 -12.35471 130.70808 3366 ft 212 kts 124°
2026-04-24 11:00 -12.36152 130.72134 3130 ft 211 kts 108°
2026-04-24 11:01 -12.36600 130.73564 2898 ft 211 kts 108°
2026-04-24 11:01 -12.37070 130.74993 2671 ft 212 kts 108°
2026-04-24 11:01 -12.37541 130.76406 2445 ft 208 kts 108°
2026-04-24 11:01 -12.37999 130.77775 2161 ft 198 kts 107°
2026-04-24 11:02 -12.38432 130.79069 1904 ft 186 kts 108°
2026-04-24 11:02 -12.38840 130.80282 1678 ft 174 kts 108°
2026-04-24 11:02 -12.39217 130.81401 1464 ft 158 kts 108°
2026-04-24 11:02 -12.39562 130.82426 1314 ft 146 kts 108°
2026-04-24 11:03 -12.39866 130.83364 1074 ft 137 kts 107°
2026-04-24 11:03 -12.40174 130.84293 771 ft 137 kts 108°
2026-04-24 11:03 -12.40479 130.85207 529 ft 138 kts 107°
2026-04-24 11:03 -12.40804 130.86136 272 ft 140 kts 107°
2026-04-24 11:04 -12.41111 130.87051 104 ft 127 kts 107°
2026-04-24 11:04 -12.41359 130.87782 100 ft 80 kts 109°
2026-04-24 11:04 -12.41370 130.88002 99 ft 24 kts 30°
2026-04-24 11:04 -12.41217 130.88055 99 ft 23 kts 19°
2026-04-24 11:05 -12.41069 130.88082 96 ft 20 kts 325°
2026-04-24 11:05 -12.41020 130.87957 95 ft 19 kts 286°
2026-04-24 11:05 -12.40974 130.87892 95 ft 7 kts 347°
2026-04-24 11:05 -12.40937 130.87861 94 ft 7 kts 293°
2026-04-24 11:06 -12.40927 130.87833 94 ft 3 kts 315°
2026-04-24 11:06 -12.40910 130.87833 94 ft 0 kts 21°